| time (UTC) | temp C | wind direction | speed KPH | gust KPH | rain 1hr cm | rain 24hr cm | rain mn cm | humidity % | barometer mb |
| 20260507160831 | 13 | 135 | 1.6 | 1.6 | 0.00 | 0.10 | 0.10 | 60 | 1012.2 |
| 20260507160327 | 13 | 186 | 1.6 | 1.6 | 0.00 | 0.10 | 0.10 | 61 | 1012.1 |
| 20260507155823 | 13 | 79 | 1.6 | 1.6 | 0.00 | 0.10 | 0.10 | 60 | 1012.5 |
| 20260507155319 | 13 | 158 | 1.6 | 1.6 | 0.00 | 0.10 | 0.10 | 61 | 1012.3 |
| 20260507154816 | 13 | 154 | 0.0 | 1.6 | 0.00 | 0.10 | 0.10 | 63 | 1012.1 |
| 20260507154314 | 13 | 171 | 0.0 | 0.0 | 0.00 | 0.10 | 0.10 | 61 | 1012.5 |
| 20260507153810 | 12 | 159 | 0.0 | 0.0 | 0.00 | 0.10 | 0.10 | 66 | 1012.1 |
| 20260507153306 | 12 | 149 | 1.6 | 1.6 | 0.00 | 0.10 | 0.10 | 61 | 1012.1 |
| 20260507152803 | 12 | 106 | 1.6 | 1.6 | 0.00 | 0.10 | 0.10 | 60 | 1012.7 |
| 20260507152259 | 12 | 142 | 0.0 | 1.6 | 0.00 | 0.10 | 0.10 | 63 | 1012.7 |
| 20260507151755 | 12 | 180 | 0.0 | 1.6 | 0.00 | 0.10 | 0.10 | 66 | 1012.3 |
| 20260507151252 | 12 | 184 | 0.0 | 0.0 | 0.00 | 0.10 | 0.10 | 69 | 1012.5 |
| 20260507150749 | 12 | 166 | 1.6 | 1.6 | 0.00 | 0.10 | 0.10 | 66 | 1012.2 |
| 20260507150246 | 12 | 117 | 0.0 | 1.6 | 0.00 | 0.10 | 0.10 | 69 | 1012.5 |
| 20260507145742 | 12 | 164 | 0.0 | 0.0 | 0.00 | 0.10 | 0.10 | 68 | 1012.8 |
| 20260507145238 | 12 | 147 | 0.0 | 0.0 | 0.00 | 0.10 | 0.10 | 70 | 1012.7 |
| 20260507144735 | 12 | 193 | 1.6 | 1.6 | 0.00 | 0.10 | 0.10 | 69 | 1012.9 |
| 20260507144233 | 12 | 185 | 1.6 | 1.6 | 0.00 | 0.10 | 0.10 | 71 | 1012.7 |
| 20260507143729 | 12 | 169 | 0.0 | 0.0 | 0.00 | 0.10 | 0.10 | 71 | 1013.1 |
| 20260507143227 | 12 | 178 | 0.0 | 0.0 | 0.00 | 0.10 | 0.10 | 73 | 1013.0 |
| 20260507142723 | 11 | 181 | 0.0 | 1.6 | 0.00 | 0.10 | 0.10 | 73 | 1012.8 |
| 20260507142220 | 11 | 177 | 0.0 | 0.0 | 0.00 | 0.10 | 0.10 | 73 | 1013.0 |
| 20260507141715 | 11 | 171 | 0.0 | 0.0 | 0.00 | 0.10 | 0.10 | 73 | 1013.1 |
| 20260507141213 | 11 | 167 | 0.0 | 0.0 | 0.00 | 0.10 | 0.10 | 74 | 1012.9 |
| 20260507140709 | 11 | 175 | 0.0 | 1.6 | 0.00 | 0.10 | 0.10 | 73 | 1013.0 |
| 20260507140206 | 11 | 170 | 0.0 | 0.0 | 0.00 | 0.10 | 0.10 | 72 | 1013.2 |
| 20260507135703 | 11 | 162 | 0.0 | 0.0 | 0.00 | 0.10 | 0.10 | 74 | 1013.3 |
| 20260507135201 | 11 | 178 | 1.6 | 1.6 | 0.00 | 0.10 | 0.10 | 73 | 1013.0 |
| 20260507134657 | 11 | 195 | 0.0 | 1.6 | 0.00 | 0.10 | 0.10 | 71 | 1013.3 |
| 20260507134153 | 11 | 167 | 0.0 | 0.0 | 0.00 | 0.10 | 0.10 | 75 | 1013.3 |
| 20260507133649 | 11 | 184 | 0.0 | 1.6 | 0.00 | 0.10 | 0.10 | 75 | 1013.4 |
| 20260507133146 | 11 | 168 | 0.0 | 0.0 | 0.00 | 0.10 | 0.10 | 74 | 1013.5 |
| 20260507132644 | 11 | 177 | 1.6 | 1.6 | 0.00 | 0.10 | 0.10 | 73 | 1013.4 |
| 20260507132139 | 11 | 171 | 0.0 | 0.0 | 0.00 | 0.10 | 0.10 | 78 | 1013.3 |
| 20260507131637 | 11 | 189 | 1.6 | 1.6 | 0.00 | 0.10 | 0.10 | 80 | 1013.1 |
| 20260507131134 | 11 | 203 | 0.0 | 0.0 | 0.00 | 0.10 | 0.10 | 83 | 1012.9 |
| 20260507130630 | 11 | 186 | 0.0 | 1.6 | 0.00 | 0.10 | 0.10 | 82 | 1013.3 |
| 20260507130129 | 11 | 175 | 0.0 | 0.0 | 0.00 | 0.10 | 0.10 | 81 | 1013.1 |
| 20260507125627 | 11 | 170 | 0.0 | 0.0 | 0.00 | 0.10 | 0.10 | 81 | 1013.0 |
| 20260507125124 | 11 | 173 | 1.6 | 1.6 | 0.00 | 0.10 | 0.10 | 81 | 1013.0 |
| 20260507124620 | 11 | 165 | 0.0 | 1.6 | 0.00 | 0.10 | 0.10 | 81 | 1013.1 |
| 20260507124118 | 11 | 183 | 0.0 | 1.6 | 0.00 | 0.10 | 0.10 | 81 | 1013.0 |
| 20260507123616 | 11 | 151 | 1.6 | 1.6 | 0.00 | 0.10 | 0.10 | 81 | 1013.0 |
| 20260507123113 | 11 | 173 | 0.0 | 0.0 | 0.00 | 0.10 | 0.10 | 81 | 1013.0 |
| 20260507122608 | 11 | 173 | 1.6 | 3.2 | 0.00 | 0.10 | 0.10 | 80 | 1013.3 |
| 20260507122104 | 11 | 172 | 0.0 | 0.0 | 0.00 | 0.10 | 0.10 | 80 | 1013.2 |
| 20260507121601 | 11 | 170 | 0.0 | 0.0 | 0.00 | 0.10 | 0.10 | 80 | 1013.1 |
| 20260507121056 | 11 | 173 | 0.0 | 0.0 | 0.00 | 0.10 | 0.10 | 80 | 1013.1 |
| 20260507120552 | 11 | 168 | 0.0 | 0.0 | 0.00 | 0.10 | 0.10 | 80 | 1012.9 |
| 20260507120049 | 11 | 169 | 0.0 | 0.0 | 0.00 | 0.10 | 0.10 | 81 | 1013.0 |
| 20260507115546 | 11 | 169 | 0.0 | 0.0 | 0.00 | 0.10 | 0.10 | 82 | 1012.9 |
| 20260507115042 | 11 | 181 | 1.6 | 3.2 | 0.00 | 0.10 | 0.10 | 82 | 1012.8 |
| 20260507114537 | 11 | 161 | 0.0 | 0.0 | 0.00 | 0.10 | 0.10 | 83 | 1012.9 |
| 20260507114035 | 11 | 196 | 1.6 | 1.6 | 0.00 | 0.10 | 0.10 | 82 | 1012.8 |
| 20260507113532 | 11 | 166 | 0.0 | 0.0 | 0.00 | 0.10 | 0.10 | 83 | 1012.9 |
| 20260507113029 | 11 | 160 | 0.0 | 0.0 | 0.00 | 0.10 | 0.10 | 84 | 1012.4 |
| 20260507112527 | 11 | 174 | 0.0 | 0.0 | 0.00 | 0.10 | 0.10 | 85 | 1012.4 |
| 20260507112023 | 11 | 159 | 1.6 | 1.6 | 0.00 | 0.10 | 0.10 | 85 | 1012.6 |
| 20260507111521 | 11 | 171 | 0.0 | 0.0 | 0.00 | 0.10 | 0.10 | 86 | 1012.6 |
| 20260507111017 | 11 | 181 | 0.0 | 0.0 | 0.00 | 0.10 | 0.10 | 86 | 1012.5 |
| 20260507110514 | 11 | 166 | 0.0 | 0.0 | 0.00 | 0.10 | 0.10 | 87 | 1012.6 |
| 20260507110010 | 11 | 167 | 0.0 | 0.0 | 0.00 | 0.10 | 0.10 | 87 | 1012.5 |
| 20260507105507 | 11 | 175 | 0.0 | 0.0 | 0.00 | 0.10 | 0.10 | 87 | 1012.7 |
| 20260507105003 | 11 | 172 | 0.0 | 0.0 | 0.00 | 0.10 | 0.10 | 87 | 1012.6 |
| 20260507104501 | 11 | 182 | 0.0 | 1.6 | 0.00 | 0.10 | 0.10 | 87 | 1012.5 |
| 20260507103956 | 11 | 167 | 0.0 | 0.0 | 0.00 | 0.10 | 0.10 | 87 | 1012.4 |
| 20260507103453 | 11 | 176 | 0.0 | 0.0 | 0.00 | 0.10 | 0.10 | 88 | 1012.3 |
| 20260507102949 | 11 | 169 | 0.0 | 0.0 | 0.00 | 0.10 | 0.10 | 88 | 1012.2 |
| 20260507102446 | 11 | 172 | 0.0 | 0.0 | 0.00 | 0.10 | 0.10 | 88 | 1012.2 |
| 20260507101943 | 11 | 159 | 0.0 | 0.0 | 0.00 | 0.10 | 0.10 | 88 | 1012.1 |
| 20260507101438 | 11 | 174 | 0.0 | 0.0 | 0.00 | 0.10 | 0.10 | 89 | 1012.2 |
| 20260507100934 | 11 | 169 | 0.0 | 0.0 | 0.00 | 0.10 | 0.10 | 88 | 1012.0 |
| 20260507100432 | 11 | 173 | 0.0 | 0.0 | 0.00 | 0.10 | 0.10 | 89 | 1012.3 |
| 20260507095930 | 11 | 173 | 0.0 | 0.0 | 0.00 | 0.10 | 0.10 | 90 | 1011.8 |
| 20260507095427 | 11 | 170 | 0.0 | 0.0 | 0.00 | 0.10 | 0.10 | 90 | 1012.1 |
| 20260507094924 | 11 | 190 | 0.0 | 1.6 | 0.00 | 0.10 | 0.10 | 91 | 1012.0 |
| 20260507094420 | 11 | 171 | 0.0 | 0.0 | 0.00 | 0.10 | 0.10 | 91 | 1012.0 |
| 20260507093917 | 11 | 172 | 0.0 | 0.0 | 0.00 | 0.10 | 0.10 | 92 | 1012.0 |
| 20260507093416 | 11 | 171 | 0.0 | 0.0 | 0.00 | 0.10 | 0.10 | 92 | 1012.1 |
| 20260507092914 | 11 | 167 | 0.0 | 0.0 | 0.00 | 0.10 | 0.10 | 92 | 1011.9 |
| 20260507092409 | 11 | 169 | 0.0 | 0.0 | 0.00 | 0.10 | 0.10 | 92 | 1012.0 |
| 20260507091906 | 11 | 163 | 0.0 | 0.0 | 0.00 | 0.10 | 0.10 | 93 | 1011.6 |
| 20260507091403 | 11 | 170 | 0.0 | 0.0 | 0.00 | 0.10 | 0.10 | 93 | 1011.7 |
| 20260507090858 | 11 | 195 | 1.6 | 3.2 | 0.00 | 0.10 | 0.10 | 93 | 1011.8 |
| 20260507090355 | 11 | 180 | 1.6 | 1.6 | 0.00 | 0.10 | 0.10 | 93 | 1011.6 |
| 20260507085852 | 11 | 169 | 0.0 | 0.0 | 0.00 | 0.10 | 0.10 | 94 | 1011.7 |
| 20260507085348 | 11 | 208 | 1.6 | 3.2 | 0.00 | 0.10 | 0.10 | 94 | 1011.9 |
| 20260507084846 | 11 | 175 | 0.0 | 0.0 | 0.00 | 0.10 | 0.10 | 94 | 1011.6 |
| 20260507084342 | 12 | 179 | 0.0 | 0.0 | 0.00 | 0.10 | 0.10 | 94 | 1011.5 |
| 20260507083840 | 12 | 180 | 0.0 | 0.0 | 0.00 | 0.10 | 0.10 | 94 | 1011.7 |
| 20260507083336 | 12 | 165 | 0.0 | 0.0 | 0.00 | 0.10 | 0.10 | 93 | 1011.7 |
| 20260507082832 | 12 | 171 | 0.0 | 0.0 | 0.00 | 0.10 | 0.10 | 93 | 1011.9 |
| 20260507082328 | 12 | 174 | 0.0 | 0.0 | 0.00 | 0.10 | 0.10 | 93 | 1011.7 |
| 20260507081826 | 12 | 170 | 0.0 | 0.0 | 0.00 | 0.10 | 0.10 | 93 | 1011.6 |
| 20260507081321 | 12 | 174 | 0.0 | 0.0 | 0.00 | 0.10 | 0.10 | 93 | 1011.6 |
| 20260507080818 | 12 | 179 | 0.0 | 1.6 | 0.00 | 0.10 | 0.10 | 93 | 1011.4 |
| 20260507080314 | 12 | 176 | 0.0 | 0.0 | 0.00 | 0.10 | 0.10 | 93 | 1011.2 |
| 20260507075810 | 12 | 169 | 0.0 | 0.0 | 0.00 | 0.10 | 0.10 | 93 | 1011.2 |
| 20260507075307 | 12 | 209 | 3.2 | 3.2 | 0.00 | 0.10 | 0.10 | 92 | 1010.9 |
| 20260507074803 | 12 | 180 | 1.6 | 3.2 | 0.00 | 0.10 | 0.10 | 93 | 1010.8 |
| 20260507074301 | 12 | 179 | 0.0 | 1.6 | 0.00 | 0.10 | 0.10 | 93 | 1011.1 |
| 20260507073757 | 12 | 194 | 0.0 | 0.0 | 0.13 | 0.10 | 0.10 | 93 | 1011.2 |
| 20260507073254 | 12 | 181 | 1.6 | 3.2 | 0.13 | 0.10 | 0.10 | 93 | 1010.9 |
| 20260507072751 | 12 | 188 | 1.6 | 1.6 | 0.00 | 0.08 | 0.08 | 93 | 1010.9 |
| 20260507072249 | 12 | 264 | 1.6 | 3.2 | 0.00 | 0.08 | 0.08 | 93 | 1010.8 |
| 20260507071746 | 12 | 187 | 1.6 | 1.6 | 0.00 | 0.08 | 0.08 | 92 | 1011.0 |
| 20260507071242 | 12 | 156 | 1.6 | 1.6 | 0.00 | 0.08 | 0.08 | 92 | 1011.1 |
| 20260507070739 | 12 | 182 | 0.0 | 1.6 | 0.00 | 0.08 | 0.08 | 93 | 1010.8 |
| 20260507070236 | 12 | 220 | 1.6 | 3.2 | 0.00 | 0.08 | 0.08 | 93 | 1010.9 |
| 20260507065733 | 12 | 157 | 0.0 | 0.0 | 0.00 | 0.08 | 0.08 | 93 | 1010.8 |
| 20260507065230 | 12 | 188 | 3.2 | 3.2 | 0.00 | 0.08 | 0.08 | 93 | 1011.0 |
| 20260507064727 | 12 | 191 | 0.0 | 0.0 | 0.00 | 0.08 | 0.08 | 94 | 1011.1 |
| 20260507064226 | 12 | 173 | 0.0 | 1.6 | 0.00 | 0.08 | 0.08 | 94 | 1011.0 |
| 20260507063723 | 12 | 174 | 1.6 | 1.6 | 0.00 | 0.08 | 0.08 | 94 | 1010.9 |
| 20260507063220 | 12 | 174 | 0.0 | 0.0 | 0.00 | 0.08 | 0.08 | 94 | 1011.1 |
| 20260507062716 | 12 | 171 | 0.0 | 0.0 | 0.00 | 0.08 | 0.08 | 94 | 1011.2 |
| 20260507062214 | 12 | 185 | 0.0 | 0.0 | 0.00 | 0.08 | 0.08 | 95 | 1011.2 |
| 20260507061712 | 12 | 193 | 0.0 | 0.0 | 0.00 | 0.08 | 0.08 | 95 | 1011.1 |
| 20260507061209 | 12 | 170 | 0.0 | 0.0 | 0.00 | 0.08 | 0.08 | 95 | 1010.9 |
| 20260507060707 | 12 | 171 | 0.0 | 0.0 | 0.00 | 0.08 | 0.08 | 95 | 1010.8 |
| 20260507060203 | 12 | 159 | 0.0 | 1.6 | 0.00 | 0.08 | 0.08 | 95 | 1010.9 |
| 20260507055659 | 12 | 206 | 6.4 | 11.3 | 0.00 | 0.08 | 0.08 | 95 | 1011.0 |
| 20260507055155 | 12 | 230 | 3.2 | 4.8 | 0.00 | 0.08 | 0.08 | 95 | 1010.8 |
| 20260507054651 | 12 | 207 | 1.6 | 1.6 | 0.00 | 0.08 | 0.08 | 95 | 1010.9 |
| 20260507054148 | 12 | 191 | 1.6 | 1.6 | 0.18 | 0.08 | 0.08 | 95 | 1011.1 |
| 20260507053646 | 13 | 217 | 1.6 | 3.2 | 0.18 | 0.08 | 0.08 | 94 | 1011.2 |
| 20260507053144 | 13 | 176 | 0.0 | 0.0 | 0.00 | 0.05 | 0.05 | 94 | 1011.3 |
| 20260507052643 | 13 | 165 | 0.0 | 1.6 | 0.00 | 0.05 | 0.05 | 94 | 1011.0 |
| 20260507052138 | 13 | 181 | 1.6 | 1.6 | 0.00 | 0.05 | 0.05 | 94 | 1011.3 |
| 20260507051636 | 13 | 180 | 0.0 | 1.6 | 0.00 | 0.05 | 0.05 | 94 | 1010.9 |
| 20260507051133 | 13 | 161 | 0.0 | 0.0 | 0.00 | 0.05 | 0.05 | 94 | 1010.8 |
| 20260507050630 | 13 | 131 | 0.0 | 0.0 | 0.00 | 0.05 | 0.05 | 94 | 1010.7 |
| 20260507050126 | 13 | 161 | 0.0 | 0.0 | 0.00 | 0.05 | 0.05 | 95 | 1011.6 |
| 20260507045623 | 13 | 152 | 3.2 | 4.8 | 0.00 | 0.05 | 0.05 | 95 | 1011.3 |
| 20260507045120 | 13 | 213 | 0.0 | 1.6 | 0.00 | 0.05 | 0.05 | 94 | 1011.3 |
| 20260507044617 | 13 | 173 | 0.0 | 0.0 | 0.00 | 0.05 | 0.05 | 94 | 1011.0 |
| 20260507044114 | 14 | 178 | 0.0 | 1.6 | 0.00 | 0.05 | 0.05 | 93 | 1011.4 |
| 20260507043609 | 14 | 188 | 0.0 | 1.6 | 0.13 | 0.05 | 0.05 | 92 | 1011.3 |
| 20260507043107 | 14 | 185 | 1.6 | 1.6 | 0.13 | 0.05 | 0.05 | 91 | 1011.2 |
| 20260507042603 | 15 | 164 | 0.0 | 0.0 | 0.18 | 0.03 | 0.03 | 90 | 1011.2 |
| 20260507042058 | 15 | 215 | 1.6 | 3.2 | 0.18 | 0.03 | 0.03 | 88 | 1011.4 |
| 20260507041555 | 15 | 260 | 3.2 | 3.2 | 0.00 | 0.00 | 0.00 | 88 | 1011.2 |
| 20260507041052 | 15 | 229 | 3.2 | 8.0 | 0.00 | 0.00 | 0.00 | 88 | 1011.0 |
| 20260507040549 | 15 | 214 | 1.6 | 3.2 | 0.00 | 0.00 | 0.00 | 87 | 1011.0 |
| 20260507040045 | 15 | 159 | 0.0 | 1.6 | 0.00 | 0.00 | 0.00 | 87 | 1010.9 |
| 20260507035541 | 15 | 144 | 0.0 | 0.0 | 0.00 | 0.71 | 0.71 | 87 | 1010.7 |
| 20260507035038 | 15 | 166 | 1.6 | 1.6 | 0.00 | 0.71 | 0.71 | 88 | 1010.8 |
| 20260507034534 | 15 | 179 | 0.0 | 0.0 | 0.00 | 0.71 | 0.71 | 88 | 1010.7 |
| 20260507034032 | 15 | 186 | 1.6 | 3.2 | 0.00 | 0.71 | 0.71 | 87 | 1010.9 |
| 20260507033530 | 16 | 215 | 1.6 | 1.6 | 0.00 | 0.71 | 0.71 | 85 | 1010.8 |
| 20260507033028 | 16 | 171 | 0.0 | 0.0 | 0.00 | 0.71 | 0.71 | 83 | 1010.5 |
| 20260507032524 | 16 | 166 | 0.0 | 0.0 | 0.00 | 0.71 | 0.71 | 81 | 1010.7 |
| 20260507032020 | 16 | 177 | 1.6 | 3.2 | 0.00 | 0.71 | 0.71 | 80 | 1010.9 |
| 20260507031516 | 16 | 158 | 3.2 | 4.8 | 0.00 | 0.71 | 0.71 | 80 | 1010.7 |
| 20260507031014 | 16 | 184 | 3.2 | 4.8 | 0.00 | 0.71 | 0.71 | 80 | 1010.7 |
| 20260507030511 | 16 | 179 | 0.0 | 0.0 | 0.00 | 0.71 | 0.71 | 81 | 1010.5 |
| 20260507030009 | 16 | 176 | 1.6 | 1.6 | 0.00 | 0.71 | 0.71 | 81 | 1010.3 |
| 20260507025505 | 16 | 182 | 0.0 | 1.6 | 0.00 | 0.71 | 0.71 | 81 | 1009.7 |
| 20260507025003 | 16 | 226 | 3.2 | 4.8 | 0.00 | 0.71 | 0.71 | 81 | 1009.8 |
| 20260507024500 | 17 | 179 | 9.7 | 12.9 | 0.00 | 0.71 | 0.71 | 81 | 1010.0 |
| 20260507023956 | 17 | 200 | 3.2 | 3.2 | 0.00 | 0.71 | 0.71 | 83 | 1010.4 |
| 20260507023453 | 17 | 291 | 4.8 | 8.0 | 0.00 | 0.71 | 0.71 | 84 | 1010.1 |
| 20260507022950 | 17 | 194 | 1.6 | 3.2 | 0.00 | 0.71 | 0.71 | 85 | 1010.2 |
| 20260507022447 | 17 | 228 | 4.8 | 4.8 | 0.00 | 0.71 | 0.71 | 86 | 1010.0 |
| 20260507021942 | 17 | 193 | 3.2 | 4.8 | 0.00 | 0.71 | 0.71 | 87 | 1009.9 |
| 20260507021438 | 17 | 170 | 1.6 | 1.6 | 0.00 | 0.71 | 0.71 | 88 | 1009.8 |
| 20260507020936 | 17 | 179 | 1.6 | 1.6 | 0.00 | 0.71 | 0.71 | 88 | 1009.7 |
| 20260507020432 | 18 | 177 | 1.6 | 1.6 | 0.00 | 0.71 | 0.71 | 88 | 1009.8 |
| 20260507015929 | 18 | 172 | 4.8 | 4.8 | 0.00 | 0.71 | 0.71 | 88 | 1009.9 |
| 20260507015428 | 18 | 224 | 1.6 | 3.2 | 0.00 | 0.71 | 0.71 | 88 | 1009.6 |
| 20260507014924 | 18 | 128 | 0.0 | 1.6 | 0.00 | 0.71 | 0.71 | 88 | 1009.6 |
| 20260507014421 | 18 | 176 | 0.0 | 0.0 | 0.00 | 0.71 | 0.71 | 88 | 1009.6 |
| 20260507013917 | 18 | 171 | 0.0 | 1.6 | 0.00 | 0.71 | 0.71 | 88 | 1009.3 |
| 20260507013414 | 18 | 188 | 0.0 | 0.0 | 0.00 | 0.71 | 0.71 | 89 | 1009.6 |
| 20260507012911 | 18 | 184 | 1.6 | 1.6 | 0.00 | 0.71 | 0.71 | 90 | 1009.8 |
| 20260507012408 | 18 | 178 | 1.6 | 1.6 | 0.00 | 0.71 | 0.71 | 91 | 1009.8 |
| 20260507011859 | 18 | 196 | 1.6 | 1.6 | 0.00 | 0.71 | 0.71 | 92 | 1010.1 |
| 20260507011356 | 18 | 182 | 1.6 | 1.6 | 0.00 | 0.71 | 0.71 | 92 | 1009.9 |
| 20260507010855 | 18 | 180 | 0.0 | 0.0 | 0.00 | 0.71 | 0.71 | 92 | 1010.0 |
| 20260507010351 | 18 | 175 | 0.0 | 0.0 | 0.00 | 0.71 | 0.71 | 93 | 1009.7 |
| 20260507005849 | 18 | 180 | 0.0 | 0.0 | 0.00 | 0.71 | 0.71 | 93 | 1009.6 |
| 20260507005345 | 18 | 174 | 0.0 | 0.0 | 0.00 | 0.71 | 0.71 | 93 | 1009.5 |
| 20260507004842 | 18 | 174 | 0.0 | 0.0 | 0.00 | 0.71 | 0.71 | 93 | 1009.7 |
| 20260507004339 | 18 | 177 | 0.0 | 0.0 | 0.00 | 0.71 | 0.71 | 93 | 1009.5 |
| 20260507003836 | 18 | 170 | 0.0 | 0.0 | 0.00 | 0.71 | 0.71 | 92 | 1009.6 |
| 20260507003332 | 18 | 166 | 0.0 | 0.0 | 0.00 | 0.71 | 0.71 | 92 | 1009.4 |
| 20260507002827 | 18 | 170 | 0.0 | 0.0 | 0.00 | 0.71 | 0.71 | 91 | 1009.5 |
| 20260507002323 | 18 | 166 | 0.0 | 0.0 | 0.00 | 0.71 | 0.71 | 91 | 1009.3 |
| 20260507001821 | 18 | 171 | 0.0 | 0.0 | 0.00 | 0.71 | 0.71 | 90 | 1009.4 |
| 20260507001318 | 19 | 171 | 0.0 | 0.0 | 0.00 | 0.71 | 0.71 | 89 | 1009.4 |
| 20260507000814 | 19 | 170 | 0.0 | 0.0 | 0.00 | 0.71 | 0.71 | 89 | 1009.1 |
| 20260507000310 | 19 | 170 | 0.0 | 0.0 | 0.00 | 0.71 | 0.71 | 88 | 1009.1 |
| 20260506235806 | 20 | 170 | 0.0 | 0.0 | 0.00 | 0.71 | 0.71 | 87 | 1009.2 |
| 20260506235306 | 20 | 185 | 1.6 | 1.6 | 0.00 | 0.71 | 0.71 | 86 | 1009.0 |
| 20260506234754 | 20 | 175 | 0.0 | 0.0 | 0.00 | 0.71 | 0.71 | 85 | 1009.3 |
| 20260506234251 | 20 | 187 | 1.6 | 1.6 | 0.00 | 0.71 | 0.71 | 85 | 1009.1 |
| 20260506233749 | 20 | 177 | 1.6 | 1.6 | 0.00 | 0.71 | 0.71 | 85 | 1008.9 |
| 20260506233245 | 20 | 175 | 0.0 | 0.0 | 0.00 | 0.71 | 0.71 | 86 | 1008.8 |
| 20260506232742 | 20 | 170 | 0.0 | 0.0 | 0.00 | 0.71 | 0.71 | 85 | 1008.5 |
| 20260506232236 | 20 | 216 | 1.6 | 1.6 | 0.00 | 0.71 | 0.71 | 85 | 1008.9 |
| 20260506231734 | 20 | 177 | 0.0 | 1.6 | 0.00 | 0.71 | 0.71 | 85 | 1008.8 |
| 20260506231232 | 20 | 277 | 4.8 | 4.8 | 0.00 | 0.71 | 0.71 | 85 | 1008.6 |
| 20260506230729 | 20 | 193 | 1.6 | 1.6 | 0.00 | 0.71 | 0.71 | 84 | 1008.3 |
| 20260506230225 | 20 | 174 | 0.0 | 0.0 | 0.00 | 0.71 | 0.71 | 85 | 1008.4 |
| 20260506225722 | 20 | 174 | 0.0 | 0.0 | 0.00 | 0.71 | 0.71 | 84 | 1008.4 |
| 20260506225221 | 20 | 165 | 0.0 | 0.0 | 0.00 | 0.71 | 0.71 | 84 | 1008.5 |
| 20260506224715 | 20 | 170 | 0.0 | 0.0 | 0.00 | 0.71 | 0.71 | 85 | 1008.4 |
| 20260506224213 | 20 | 149 | 3.2 | 3.2 | 0.00 | 0.71 | 0.71 | 84 | 1008.4 |
| 20260506223709 | 20 | 146 | 4.8 | 8.0 | 0.00 | 0.71 | 0.71 | 84 | 1008.3 |
| 20260506223205 | 20 | 150 | 4.8 | 4.8 | 0.00 | 0.71 | 0.71 | 84 | 1008.3 |
| 20260506222702 | 20 | 129 | 1.6 | 3.2 | 0.00 | 0.71 | 0.71 | 84 | 1008.7 |
| 20260506222157 | 20 | 201 | 1.6 | 1.6 | 0.00 | 0.71 | 0.71 | 84 | 1008.5 |
| 20260506221656 | 20 | 176 | 0.0 | 1.6 | 0.00 | 0.71 | 0.71 | 84 | 1008.3 |
| 20260506221153 | 20 | 200 | 1.6 | 3.2 | 0.00 | 0.71 | 0.71 | 84 | 1008.3 |
| 20260506220650 | 20 | 150 | 3.2 | 4.8 | 0.00 | 0.71 | 0.71 | 82 | 1008.2 |
| 20260506220145 | 20 | 180 | 1.6 | 1.6 | 0.00 | 0.71 | 0.71 | 83 | 1008.3 |
| 20260506215642 | 20 | 157 | 1.6 | 1.6 | 0.00 | 0.71 | 0.71 | 83 | 1008.3 |
| 20260506215137 | 20 | 173 | 1.6 | 1.6 | 0.00 | 0.71 | 0.71 | 82 | 1008.5 |
| 20260506214634 | 21 | 197 | 3.2 | 3.2 | 0.00 | 0.71 | 0.71 | 82 | 1008.3 |
| 20260506214132 | 20 | 210 | 1.6 | 3.2 | 0.00 | 0.71 | 0.71 | 82 | 1008.2 |
| 20260506213630 | 21 | 139 | 4.8 | 8.0 | 0.00 | 0.71 | 0.71 | 81 | 1008.2 |
| 20260506213127 | 21 | 172 | 0.0 | 0.0 | 0.00 | 0.71 | 0.71 | 82 | 1008.3 |
| 20260506212624 | 20 | 164 | 1.6 | 3.2 | 0.00 | 0.71 | 0.71 | 82 | 1008.3 |
| 20260506212119 | 20 | 182 | 3.2 | 3.2 | 0.00 | 0.71 | 0.71 | 83 | 1008.2 |
| 20260506211614 | 20 | 167 | 1.6 | 1.6 | 0.00 | 0.71 | 0.71 | 83 | 1008.5 |
| 20260506211112 | 20 | 289 | 4.8 | 4.8 | 0.00 | 0.71 | 0.71 | 82 | 1008.3 |
| 20260506210609 | 20 | 176 | 3.2 | 4.8 | 0.00 | 0.71 | 0.71 | 82 | 1008.2 |
| 20260506210105 | 20 | 198 | 1.6 | 1.6 | 0.00 | 0.71 | 0.71 | 81 | 1008.1 |
| 20260506205602 | 21 | 185 | 1.6 | 1.6 | 0.00 | 0.71 | 0.71 | 82 | 1008.1 |
| 20260506205057 | 20 | 175 | 0.0 | 0.0 | 0.00 | 0.71 | 0.71 | 83 | 1008.0 |
| 20260506204555 | 20 | 171 | 4.8 | 8.0 | 0.00 | 0.71 | 0.71 | 82 | 1007.9 |
| 20260506204052 | 20 | 332 | 3.2 | 4.8 | 0.00 | 0.71 | 0.71 | 82 | 1008.0 |
| 20260506203550 | 20 | 247 | 6.4 | 8.0 | 0.00 | 0.71 | 0.71 | 82 | 1008.1 |
| 20260506203046 | 20 | 173 | 3.2 | 3.2 | 0.00 | 0.71 | 0.71 | 83 | 1007.8 |
| 20260506202544 | 20 | 189 | 1.6 | 3.2 | 0.00 | 0.71 | 0.71 | 81 | 1008.0 |
| 20260506202040 | 21 | 169 | 0.0 | 1.6 | 0.00 | 0.71 | 0.71 | 82 | 1007.9 |
| 20260506201538 | 20 | 259 | 3.2 | 4.8 | 0.00 | 0.71 | 0.71 | 83 | 1007.8 |
| 20260506201034 | 20 | 217 | 6.4 | 9.7 | 0.00 | 0.71 | 0.71 | 84 | 1007.9 |
| 20260506200530 | 20 | 228 | 4.8 | 8.0 | 0.00 | 0.71 | 0.71 | 84 | 1008.2 |
| 20260506200027 | 20 | 164 | 6.4 | 11.3 | 0.00 | 0.71 | 0.71 | 83 | 1008.0 |
| 20260506195524 | 20 | 144 | 4.8 | 4.8 | 0.00 | 0.71 | 0.71 | 83 | 1008.1 |
| 20260506195020 | 20 | 230 | 3.2 | 3.2 | 0.00 | 0.71 | 0.71 | 84 | 1008.0 |
| 20260506194518 | 20 | 209 | 1.6 | 3.2 | 0.00 | 0.71 | 0.71 | 84 | 1008.0 |
| 20260506194015 | 20 | 158 | 4.8 | 8.0 | 0.00 | 0.71 | 0.71 | 84 | 1008.4 |
| 20260506193512 | 20 | 202 | 3.2 | 3.2 | 0.00 | 0.71 | 0.71 | 84 | 1008.0 |
| 20260506193009 | 20 | 230 | 4.8 | 4.8 | 0.00 | 0.71 | 0.71 | 83 | 1008.0 |
| 20260506192506 | 20 | 187 | 3.2 | 3.2 | 0.00 | 0.71 | 0.71 | 83 | 1008.0 |
| 20260506192002 | 19 | 125 | 4.8 | 9.7 | 0.00 | 0.71 | 0.71 | 84 | 1008.4 |
| 20260506191459 | 19 | 334 | 4.8 | 9.7 | 0.00 | 0.71 | 0.71 | 84 | 1008.5 |
| 20260506190955 | 20 | 228 | 4.8 | 8.0 | 0.00 | 0.71 | 0.71 | 84 | 1008.3 |
| 20260506190452 | 20 | 202 | 1.6 | 3.2 | 0.00 | 0.71 | 0.71 | 84 | 1008.5 |
| 20260506185948 | 20 | 201 | 1.6 | 1.6 | 0.00 | 0.71 | 0.71 | 85 | 1008.5 |
| 20260506185446 | 19 | 136 | 3.2 | 3.2 | 0.00 | 0.71 | 0.71 | 86 | 1008.4 |
| 20260506184943 | 19 | 111 | 4.8 | 4.8 | 0.00 | 0.71 | 0.71 | 85 | 1008.7 |
| 20260506184439 | 18 | 274 | 8.0 | 11.3 | 0.00 | 0.71 | 0.71 | 86 | 1008.7 |
| 20260506183937 | 18 | 276 | 8.0 | 9.7 | 0.00 | 0.71 | 0.71 | 86 | 1008.6 |
| 20260506183432 | 18 | 162 | 1.6 | 1.6 | 0.00 | 0.71 | 0.71 | 86 | 1008.6 |
| 20260506182929 | 18 | 164 | 1.6 | 3.2 | 0.00 | 0.71 | 0.71 | 85 | 1008.7 |
| 20260506182427 | 18 | 230 | 4.8 | 4.8 | 0.00 | 0.71 | 0.71 | 87 | 1008.8 |
| 20260506181924 | 18 | 181 | 1.6 | 3.2 | 0.00 | 0.71 | 0.71 | 86 | 1008.9 |
| 20260506181422 | 18 | 114 | 6.4 | 8.0 | 0.00 | 0.71 | 0.71 | 86 | 1008.8 |
| 20260506180918 | 18 | 154 | 4.8 | 4.8 | 0.00 | 0.71 | 0.71 | 87 | 1008.9 |
| 20260506180414 | 18 | 343 | 3.2 | 8.0 | 0.00 | 0.71 | 0.71 | 87 | 1008.7 |
| 20260506175912 | 18 | 164 | 1.6 | 1.6 | 0.00 | 0.71 | 0.71 | 87 | 1009.0 |
| 20260506175409 | 18 | 186 | 1.6 | 1.6 | 0.00 | 0.71 | 0.71 | 87 | 1009.2 |
| 20260506174905 | 18 | 150 | 6.4 | 8.0 | 0.00 | 0.71 | 0.71 | 86 | 1009.2 |
| 20260506174403 | 18 | 230 | 6.4 | 8.0 | 0.00 | 0.71 | 0.71 | 87 | 1009.2 |
| 20260506173900 | 18 | 239 | 3.2 | 3.2 | 0.00 | 0.71 | 0.71 | 88 | 1009.0 |
| 20260506173356 | 18 | 172 | 4.8 | 4.8 | 0.00 | 0.71 | 0.71 | 88 | 1009.2 |
| 20260506172853 | 17 | 184 | 0.0 | 0.0 | 0.00 | 0.71 | 0.71 | 89 | 1009.5 |
| 20260506172350 | 17 | 174 | 1.6 | 3.2 | 0.00 | 0.71 | 0.71 | 89 | 1009.1 |
| 20260506171847 | 17 | 149 | 4.8 | 4.8 | 0.00 | 0.71 | 0.71 | 89 | 1009.4 |
| 20260506171345 | 17 | 108 | 4.8 | 4.8 | 0.00 | 0.71 | 0.71 | 90 | 1009.4 |
| 20260506170842 | 17 | 165 | 3.2 | 3.2 | 0.00 | 0.71 | 0.71 | 90 | 1009.5 |
| 20260506170338 | 17 | 120 | 8.0 | 11.3 | 0.00 | 0.71 | 0.71 | 90 | 1009.1 |
| 20260506165838 | 17 | 128 | 3.2 | 3.2 | 0.00 | 0.71 | 0.71 | 90 | 1009.5 |
| 20260506165335 | 17 | 148 | 3.2 | 3.2 | 0.00 | 0.71 | 0.71 | 91 | 1009.2 |
| 20260506164831 | 17 | 143 | 3.2 | 3.2 | 0.00 | 0.71 | 0.71 | 91 | 1009.2 |
| 20260506164328 | 17 | 158 | 1.6 | 3.2 | 0.00 | 0.71 | 0.71 | 92 | 1009.4 |
| 20260506163825 | 17 | 130 | 1.6 | 1.6 | 0.00 | 0.71 | 0.71 | 93 | 1009.1 |
| 20260506163320 | 17 | 125 | 8.0 | 11.3 | 0.00 | 0.71 | 0.71 | 95 | 1009.4 |
| 20260506162815 | 16 | 1 | 4.8 | 8.0 | 0.00 | 0.71 | 0.71 | 98 | 1009.4 |
| 20260506162313 | 16 | 15 | 6.4 | 9.7 | 0.00 | 0.71 | 0.71 | 98 | 1009.3 |
| 20260506161805 | 16 | 141 | 4.8 | 9.7 | 0.00 | 0.71 | 0.71 | 99 | 1009.4 |
| 20260506161302 | 16 | 189 | 4.8 | 8.0 | 0.00 | 0.71 | 0.71 | 99 | 1009.5 |